SRMSAT

Satellite information

Favourite Embed

Satellite Type and Status

PAYLOADIN ORBIT

Key statistics

Satellite SRMSAT at a glance.

Uptime

4960

Days in orbit

Revolutions

≈ 14.1

Per day

Orbit

LEO

Low Earth Orbit

Inclination

20.0

Latest

Satellite identification and parameters

Extended collection of information and parameters for SRMSAT.

Object identification

Identified? True

Debris? False

Object name: SRMSAT

International designator: 2011-058D

Object number (NORAD): 37841

Object ID (CCSDS): 37841

Country: INDIA (IND)

Current information (Y/N): Y

RCS size: MEDIUM

Orbital parameters

Period: 102.024 minutes

Inclination: 19.9735 deg

SMA: 7232.632 km

Apoapsis: 863.027 km

Periapsis: 845.966 km

RAAN: 334.1573 deg

Eccentricy: 0.0011794

Argument of periapsis: 98.4931 deg

Mean anomaly: 300.9332 deg

Mean motion: 14.11426443 rev/day

Mean motion (dot): 0.00000462 rev/day2

B* drag term: 0.00010745 1/REarth

Two-line elements (TLE)

Creation date: May 11, 2025, 2:40 a.m.

Reference frame: TEME

Reference center: EARTH

Epoch: May 10, 2025, 9:35 p.m. UTC

TLE line 0: 0 SRMSAT

TLE line 1: 1 37841U 11058D 25130.89950470 .00000462 00000-0 10745-3 0 9993

TLE line 2: 2 37841 19.9735 334.1573 0011794 98.4931 300.9332 14.11426443700918

Live tracking on map

Real-time ground track for satellite SRMSAT.

In-orbit conjunctions

There are no conjunctions computed for SRMSAT, at the moment. Check back to stay up to date, as we update our databases every day.

Go to all conjunctions

Associated space launch

SRMSAT was lifted into orbit during the mission ‘PSLV-CA | Megha-Tropiques’, on board a PSLV space rocket.

The launch took place on Oct. 12, 2011, 5:31 a.m. from Satish Dhawan Space Centre First Launch Pad.

For more information about the launch, click the button.

Launch to space PSLV-CA | Megha-Tropiques
PSLV-CA | Megha-Tropiques

Agency: N/A

Status: Launch Successful

Launch date: Oct. 12, 2011, 5:31 a.m. UTC

Rocket: PSLV

Launch pad: Satish Dhawan Space Centre First Launch Pad

Location: Satish Dhawan Space Centre, India

...

Latest news about this satellite

There are no fresh news available about this satellite. Check back as we update our databases every day.


Newsletter sign-up

Weekly statistics, charts and insights to help you stay on top of the space industry.